Year,Month,Day,Hour,Minute,Value (Times are PST for temperature in C)
2008,08,05,00,00,17.30
2008,08,05,00,01,17.30
2008,08,05,00,02,17.30
2008,08,05,00,03,17.30
2008,08,05,00,04,17.30
2008,08,05,00,05,17.30
2008,08,05,00,06,17.30
2008,08,05,00,07,17.30
2008,08,05,00,08,17.20
2008,08,05,00,09,17.30
2008,08,05,00,10,17.30
2008,08,05,00,11,17.30
2008,08,05,00,12,17.40
2008,08,05,00,13,17.40
2008,08,05,00,14,17.50
2008,08,05,00,15,17.50
2008,08,05,00,16,17.70
2008,08,05,00,17,17.80
2008,08,05,00,18,17.90
2008,08,05,00,19,18.00
2008,08,05,00,20,18.10
2008,08,05,00,21,18.10
2008,08,05,00,22,18.10
2008,08,05,00,23,18.10
2008,08,05,00,24,18.10
2008,08,05,00,25,18.10
2008,08,05,00,26,18.10
2008,08,05,00,27,18.10
2008,08,05,00,28,18.10
2008,08,05,00,29,18.10
2008,08,05,00,30,18.10
2008,08,05,00,31,18.00
2008,08,05,00,32,17.90
2008,08,05,00,33,17.90
2008,08,05,00,34,17.90
2008,08,05,00,35,17.90
2008,08,05,00,36,17.90
2008,08,05,00,37,17.90
2008,08,05,00,38,17.80
2008,08,05,00,39,17.80
2008,08,05,00,40,17.80
2008,08,05,00,41,17.80
2008,08,05,00,42,17.70
2008,08,05,00,43,17.50
2008,08,05,00,44,17.40
2008,08,05,00,45,17.30
2008,08,05,00,46,17.20
2008,08,05,00,47,17.10
2008,08,05,00,48,17.00
2008,08,05,00,49,17.00
2008,08,05,00,50,16.90
2008,08,05,00,51,16.80
2008,08,05,00,52,16.70
2008,08,05,00,53,16.60
2008,08,05,00,54,16.50
2008,08,05,00,55,16.40
2008,08,05,00,56,16.20
2008,08,05,00,57,16.10
2008,08,05,00,58,16.10
2008,08,05,00,59,16.00
2008,08,05,01,00,15.90
2008,08,05,01,01,15.90
2008,08,05,01,02,15.90
2008,08,05,01,03,15.80
2008,08,05,01,04,15.80
2008,08,05,01,05,15.80
2008,08,05,01,06,15.80
2008,08,05,01,07,15.80
2008,08,05,01,08,15.80
2008,08,05,01,09,15.70
2008,08,05,01,10,15.60
2008,08,05,01,11,15.60
2008,08,05,01,12,15.50
2008,08,05,01,13,15.40
2008,08,05,01,14,15.30
2008,08,05,01,15,15.10
2008,08,05,01,16,15.00
2008,08,05,01,17,14.90
2008,08,05,01,18,14.90
2008,08,05,01,19,14.90
2008,08,05,01,20,14.90
2008,08,05,01,21,14.90
2008,08,05,01,22,14.90
2008,08,05,01,23,14.80
2008,08,05,01,24,14.80
2008,08,05,01,25,14.80
2008,08,05,01,26,14.90
2008,08,05,01,27,14.90
2008,08,05,01,28,14.90
2008,08,05,01,29,14.80
2008,08,05,01,30,14.70
2008,08,05,01,31,14.60
2008,08,05,01,32,14.50
2008,08,05,01,33,14.50
2008,08,05,01,34,14.40
2008,08,05,01,35,14.40
2008,08,05,01,36,14.50
2008,08,05,01,37,14.60
2008,08,05,01,38,14.80
2008,08,05,01,39,14.90
2008,08,05,01,40,15.00
2008,08,05,01,41,15.10
2008,08,05,01,42,15.30
2008,08,05,01,43,15.30
2008,08,05,01,44,15.50
2008,08,05,01,45,15.60
2008,08,05,01,46,15.60
2008,08,05,01,47,15.70
2008,08,05,01,48,15.80
2008,08,05,01,49,15.90
2008,08,05,01,50,16.00
2008,08,05,01,51,16.10
2008,08,05,01,52,16.10
2008,08,05,01,53,16.10
2008,08,05,01,54,16.10
2008,08,05,01,55,16.10
2008,08,05,01,56,16.10
2008,08,05,01,57,16.10
2008,08,05,01,58,16.10
2008,08,05,01,59,16.00
2008,08,05,02,00,15.90
2008,08,05,02,01,15.80
2008,08,05,02,02,15.80
2008,08,05,02,03,15.70
2008,08,05,02,04,15.70
2008,08,05,02,05,15.70
2008,08,05,02,06,15.70
2008,08,05,02,07,15.60
2008,08,05,02,08,15.50
2008,08,05,02,09,15.50
2008,08,05,02,10,15.40
2008,08,05,02,11,15.30
2008,08,05,02,12,15.30
2008,08,05,02,13,15.20
2008,08,05,02,14,15.10
2008,08,05,02,15,15.00
2008,08,05,02,16,14.90
2008,08,05,02,17,14.90
2008,08,05,02,18,14.80
2008,08,05,02,19,14.70
2008,08,05,02,20,14.60
2008,08,05,02,21,14.60
2008,08,05,02,22,14.50
2008,08,05,02,23,14.50
2008,08,05,02,24,14.40
2008,08,05,02,25,14.30
2008,08,05,02,26,14.20
2008,08,05,02,27,14.10
2008,08,05,02,28,14.10
2008,08,05,02,29,14.00
2008,08,05,02,30,13.90
2008,08,05,02,31,13.70
2008,08,05,02,32,13.70
2008,08,05,02,33,13.60
2008,08,05,02,34,13.50
2008,08,05,02,35,13.50
2008,08,05,02,36,13.40
2008,08,05,02,37,13.40
2008,08,05,02,38,13.30
2008,08,05,02,39,13.30
2008,08,05,02,40,13.30
2008,08,05,02,41,13.30
2008,08,05,02,42,13.30
2008,08,05,02,43,13.30
2008,08,05,02,44,13.30
2008,08,05,02,45,13.30
2008,08,05,02,46,13.30
2008,08,05,02,47,13.30
2008,08,05,02,48,13.30
2008,08,05,02,49,13.40
2008,08,05,02,50,13.40
2008,08,05,02,51,13.40
2008,08,05,02,52,13.50
2008,08,05,02,53,13.50
2008,08,05,02,54,13.50
2008,08,05,02,55,13.50
2008,08,05,02,56,13.50
2008,08,05,02,57,13.50
2008,08,05,02,58,13.50
2008,08,05,02,59,13.50
2008,08,05,03,00,13.50
2008,08,05,03,01,13.50
2008,08,05,03,02,13.50
2008,08,05,03,03,13.50
2008,08,05,03,04,13.50
2008,08,05,03,05,13.50
2008,08,05,03,06,13.50
2008,08,05,03,07,13.50
2008,08,05,03,08,13.50
2008,08,05,03,09,13.40
2008,08,05,03,10,13.40
2008,08,05,03,11,13.40
2008,08,05,03,12,13.30
2008,08,05,03,13,13.30
2008,08,05,03,14,13.30
2008,08,05,03,15,13.30
2008,08,05,03,16,13.30
2008,08,05,03,17,13.30
2008,08,05,03,18,13.30
2008,08,05,03,19,13.30
2008,08,05,03,20,13.30
2008,08,05,03,21,13.40
2008,08,05,03,22,13.50
2008,08,05,03,23,13.50
2008,08,05,03,24,13.50
2008,08,05,03,25,13.60
2008,08,05,03,26,13.60
2008,08,05,03,27,13.70
2008,08,05,03,28,13.70
2008,08,05,03,29,13.70
2008,08,05,03,30,13.70
2008,08,05,03,31,13.70
2008,08,05,03,32,13.70
2008,08,05,03,33,13.70
2008,08,05,03,34,13.70
2008,08,05,03,35,13.60
2008,08,05,03,36,13.60
2008,08,05,03,37,13.60
2008,08,05,03,38,13.50
2008,08,05,03,39,13.40
2008,08,05,03,40,13.30
2008,08,05,03,41,13.30
2008,08,05,03,42,13.30
2008,08,05,03,43,13.20
2008,08,05,03,44,13.20
2008,08,05,03,45,13.10
2008,08,05,03,46,13.10
2008,08,05,03,47,13.00
2008,08,05,03,48,13.00
2008,08,05,03,49,13.00
2008,08,05,03,50,13.00
2008,08,05,03,51,12.90
2008,08,05,03,52,12.90
2008,08,05,03,53,12.90
2008,08,05,03,54,12.90
2008,08,05,03,55,12.90
2008,08,05,03,56,12.90
2008,08,05,03,57,12.90
2008,08,05,03,58,12.80
2008,08,05,03,59,12.80
2008,08,05,04,00,12.80
2008,08,05,04,01,12.80
2008,08,05,04,02,12.80
2008,08,05,04,03,12.80
2008,08,05,04,04,12.70
2008,08,05,04,05,12.70
2008,08,05,04,06,12.70
2008,08,05,04,07,12.70
2008,08,05,04,08,12.80
2008,08,05,04,09,12.80
2008,08,05,04,10,12.80
2008,08,05,04,11,12.70
2008,08,05,04,12,12.70
2008,08,05,04,13,12.70
2008,08,05,04,14,12.60
2008,08,05,04,15,12.60
2008,08,05,04,16,12.50
2008,08,05,04,17,12.50
2008,08,05,04,18,12.40
2008,08,05,04,19,12.40
2008,08,05,04,20,12.30
2008,08,05,04,21,12.30
2008,08,05,04,22,12.20
2008,08,05,04,23,12.20
2008,08,05,04,24,12.30
2008,08,05,04,25,12.30
2008,08,05,04,26,12.30
2008,08,05,04,27,12.30
2008,08,05,04,28,12.30
2008,08,05,04,29,12.20
2008,08,05,04,30,12.20
2008,08,05,04,31,12.20
2008,08,05,04,32,12.20
2008,08,05,04,33,12.20
2008,08,05,04,34,12.20
2008,08,05,04,35,12.20
2008,08,05,04,36,12.20
2008,08,05,04,37,12.20
2008,08,05,04,38,12.10
2008,08,05,04,39,12.10
2008,08,05,04,40,12.10
2008,08,05,04,41,12.10
2008,08,05,04,42,12.10
2008,08,05,04,43,12.10
2008,08,05,04,44,12.10
2008,08,05,04,45,12.10
2008,08,05,04,46,12.10
2008,08,05,04,47,12.10
2008,08,05,04,48,12.00
2008,08,05,04,49,12.00
2008,08,05,04,50,12.00
2008,08,05,04,51,12.00
2008,08,05,04,52,12.10
2008,08,05,04,53,12.10
2008,08,05,04,54,12.10
2008,08,05,04,55,12.10
2008,08,05,04,56,12.00
2008,08,05,04,57,12.00
2008,08,05,04,58,12.10
2008,08,05,04,59,12.30
2008,08,05,05,00,12.30
2008,08,05,05,01,12.30
2008,08,05,05,02,12.20
2008,08,05,05,03,12.20
2008,08,05,05,04,12.20
2008,08,05,05,05,12.30
2008,08,05,05,06,12.30
2008,08,05,05,07,12.40
2008,08,05,05,08,12.50
2008,08,05,05,09,12.50
2008,08,05,05,10,12.50
2008,08,05,05,11,12.60
2008,08,05,05,12,12.60
2008,08,05,05,13,12.60
2008,08,05,05,14,12.60
2008,08,05,05,15,12.70
2008,08,05,05,16,12.80
2008,08,05,05,17,12.90
2008,08,05,05,18,13.00
2008,08,05,05,19,13.10
2008,08,05,05,20,13.20
2008,08,05,05,21,13.20
2008,08,05,05,22,13.30
2008,08,05,05,23,13.30
2008,08,05,05,24,13.30
2008,08,05,05,25,13.30
2008,08,05,05,26,13.30
2008,08,05,05,27,13.30
2008,08,05,05,28,13.30
2008,08,05,05,29,13.30
2008,08,05,05,30,13.30
2008,08,05,05,31,13.20
2008,08,05,05,32,13.20
2008,08,05,05,33,13.10
2008,08,05,05,34,13.10
2008,08,05,05,35,13.00
2008,08,05,05,36,13.00
2008,08,05,05,37,12.90
2008,08,05,05,38,12.80
2008,08,05,05,39,12.80
2008,08,05,05,40,12.70
2008,08,05,05,41,12.70
2008,08,05,05,42,12.70
2008,08,05,05,43,12.60
2008,08,05,05,44,12.60
2008,08,05,05,45,12.50
2008,08,05,05,46,12.50
2008,08,05,05,47,12.40
2008,08,05,05,48,12.40
2008,08,05,05,49,12.40
2008,08,05,05,50,12.40
2008,08,05,05,51,12.40
2008,08,05,05,52,12.30
2008,08,05,05,53,12.40
2008,08,05,05,54,12.40
2008,08,05,05,55,12.50
2008,08,05,05,56,12.60
2008,08,05,05,57,12.70
2008,08,05,05,58,12.80
2008,08,05,05,59,12.80
2008,08,05,06,00,12.80
2008,08,05,06,01,12.80
2008,08,05,06,02,12.80
2008,08,05,06,03,12.80
2008,08,05,06,04,12.80
2008,08,05,06,05,12.80
2008,08,05,06,06,12.80
2008,08,05,06,07,12.70
2008,08,05,06,08,12.70
2008,08,05,06,09,12.70
2008,08,05,06,10,12.60
2008,08,05,06,11,12.60
2008,08,05,06,12,12.60
2008,08,05,06,13,12.60
2008,08,05,06,14,12.50
2008,08,05,06,15,12.50
2008,08,05,06,16,12.40
2008,08,05,06,17,12.30
2008,08,05,06,18,12.20
2008,08,05,06,19,12.10
2008,08,05,06,20,12.00
2008,08,05,06,21,12.00
2008,08,05,06,22,11.90
2008,08,05,06,23,11.90
2008,08,05,06,24,11.90
2008,08,05,06,25,11.90
2008,08,05,06,26,12.00
2008,08,05,06,27,12.10
2008,08,05,06,28,12.20
2008,08,05,06,29,12.30
2008,08,05,06,30,12.30
2008,08,05,06,31,12.30
2008,08,05,06,32,12.30
2008,08,05,06,33,12.30
2008,08,05,06,34,12.30
2008,08,05,06,35,12.30
2008,08,05,06,36,12.30
2008,08,05,06,37,12.40
2008,08,05,06,38,12.50
2008,08,05,06,39,12.60
2008,08,05,06,40,12.80
2008,08,05,06,41,13.00
2008,08,05,06,42,13.10
2008,08,05,06,43,13.30
2008,08,05,06,44,13.40
2008,08,05,06,45,13.50
2008,08,05,06,46,13.60
2008,08,05,06,47,13.60
2008,08,05,06,48,13.70
2008,08,05,06,49,13.70
2008,08,05,06,50,13.70
2008,08,05,06,51,13.70
2008,08,05,06,52,13.70
2008,08,05,06,53,13.70
2008,08,05,06,54,13.70
2008,08,05,06,55,13.70
2008,08,05,06,56,13.60
2008,08,05,06,57,13.60
2008,08,05,06,58,13.60
2008,08,05,06,59,13.60
2008,08,05,07,00,13.50
2008,08,05,07,01,13.50
2008,08,05,07,02,13.50
2008,08,05,07,03,13.40
2008,08,05,07,04,13.40
2008,08,05,07,05,13.40
2008,08,05,07,06,13.50
2008,08,05,07,07,13.50
2008,08,05,07,08,13.60
2008,08,05,07,09,13.70
2008,08,05,07,10,13.70
2008,08,05,07,11,13.80
2008,08,05,07,12,13.90
2008,08,05,07,13,14.00
2008,08,05,07,14,14.10
2008,08,05,07,15,14.20
2008,08,05,07,16,14.20
2008,08,05,07,17,14.40
2008,08,05,07,18,14.40
2008,08,05,07,19,14.50
2008,08,05,07,20,14.60
2008,08,05,07,21,14.60
2008,08,05,07,22,14.70
2008,08,05,07,23,14.70
2008,08,05,07,24,14.80
2008,08,05,07,25,14.80
2008,08,05,07,26,14.90
2008,08,05,07,27,14.90
2008,08,05,07,28,15.00
2008,08,05,07,29,15.00
2008,08,05,07,30,15.10
2008,08,05,07,31,15.10
2008,08,05,07,32,15.20
2008,08,05,07,33,15.20
2008,08,05,07,34,15.20
2008,08,05,07,35,15.30
2008,08,05,07,36,15.30
2008,08,05,07,37,15.30
2008,08,05,07,38,15.30
2008,08,05,07,39,15.30
2008,08,05,07,40,15.40
2008,08,05,07,41,15.40
2008,08,05,07,42,15.50
2008,08,05,07,43,15.60
2008,08,05,07,44,15.60
2008,08,05,07,45,15.70
2008,08,05,07,46,15.80
2008,08,05,07,47,15.90
2008,08,05,07,48,16.00
2008,08,05,07,49,16.10
2008,08,05,07,50,16.10
2008,08,05,07,51,16.20
2008,08,05,07,52,16.20
2008,08,05,07,53,16.30
2008,08,05,07,54,16.30
2008,08,05,07,55,16.40
2008,08,05,07,56,16.40
2008,08,05,07,57,16.40
2008,08,05,07,58,16.40
2008,08,05,07,59,16.60
2008,08,05,08,00,16.60
2008,08,05,08,01,16.70
2008,08,05,08,02,16.70
2008,08,05,08,03,16.70
2008,08,05,08,04,16.70
2008,08,05,08,05,16.80
2008,08,05,08,06,16.80
2008,08,05,08,07,16.90
2008,08,05,08,08,16.90
2008,08,05,08,09,16.90
2008,08,05,08,10,17.00
2008,08,05,08,11,17.00
2008,08,05,08,12,17.10
2008,08,05,08,13,17.10
2008,08,05,08,14,17.20
2008,08,05,08,15,17.30
2008,08,05,08,16,17.40
2008,08,05,08,17,17.40
2008,08,05,08,18,17.50
2008,08,05,08,19,17.50
2008,08,05,08,20,17.60
2008,08,05,08,21,17.60
2008,08,05,08,22,17.70
2008,08,05,08,23,17.70
2008,08,05,08,24,17.70
2008,08,05,08,25,17.60
2008,08,05,08,26,17.60
2008,08,05,08,27,17.60
2008,08,05,08,28,17.60
2008,08,05,08,29,17.60
2008,08,05,08,30,17.60
2008,08,05,08,31,17.60
2008,08,05,08,32,17.50
2008,08,05,08,33,17.50
2008,08,05,08,34,17.50
2008,08,05,08,35,17.50
2008,08,05,08,36,17.50
2008,08,05,08,37,17.60
2008,08,05,08,38,17.60
2008,08,05,08,39,17.60
2008,08,05,08,40,17.60
2008,08,05,08,41,17.70
2008,08,05,08,42,17.70
2008,08,05,08,43,17.70
2008,08,05,08,44,17.70
2008,08,05,08,45,17.70
2008,08,05,08,46,17.70
2008,08,05,08,47,17.70
2008,08,05,08,48,17.70
2008,08,05,08,49,17.70
2008,08,05,08,50,17.80
2008,08,05,08,51,17.80
2008,08,05,08,52,17.80
2008,08,05,08,53,17.90
2008,08,05,08,54,17.90
2008,08,05,08,55,17.90
2008,08,05,08,56,17.90
2008,08,05,08,57,17.90
2008,08,05,08,58,17.90
2008,08,05,08,59,17.90
2008,08,05,09,00,18.10
2008,08,05,09,01,18.10
2008,08,05,09,02,18.20
2008,08,05,09,03,18.20
2008,08,05,09,04,18.20
2008,08,05,09,05,18.20
2008,08,05,09,06,18.10
2008,08,05,09,07,18.10
2008,08,05,09,08,18.00
2008,08,05,09,09,17.90
2008,08,05,09,10,17.90
2008,08,05,09,11,17.90
2008,08,05,09,12,17.90
2008,08,05,09,13,17.90
2008,08,05,09,14,18.00
2008,08,05,09,15,18.10
2008,08,05,09,16,18.20
2008,08,05,09,17,18.20
2008,08,05,09,18,18.20
2008,08,05,09,19,18.30
2008,08,05,09,20,18.30
2008,08,05,09,21,18.30
2008,08,05,09,22,18.30
2008,08,05,09,23,18.30
2008,08,05,09,24,18.30
2008,08,05,09,25,18.40
2008,08,05,09,26,18.40
2008,08,05,09,27,18.50
2008,08,05,09,28,18.50
2008,08,05,09,29,18.60
2008,08,05,09,30,18.60
2008,08,05,09,31,18.70
2008,08,05,09,32,18.70
2008,08,05,09,33,18.80
2008,08,05,09,34,18.90
2008,08,05,09,35,18.90
2008,08,05,09,36,18.90
2008,08,05,09,37,18.90
2008,08,05,09,38,18.90
2008,08,05,09,39,19.00
2008,08,05,09,40,19.10
2008,08,05,09,41,19.10
2008,08,05,09,42,19.20
2008,08,05,09,43,19.30
2008,08,05,09,44,19.30
2008,08,05,09,45,19.40
2008,08,05,09,46,19.40
2008,08,05,09,47,19.40
2008,08,05,09,48,19.40
2008,08,05,09,49,19.40
2008,08,05,09,50,19.40
2008,08,05,09,51,19.40
2008,08,05,09,52,19.40
2008,08,05,09,53,19.40
2008,08,05,09,54,19.40
2008,08,05,09,55,19.50
2008,08,05,09,56,19.50
2008,08,05,09,57,19.60
2008,08,05,09,58,19.60
2008,08,05,09,59,19.60
2008,08,05,10,00,19.60
2008,08,05,10,01,19.60
2008,08,05,10,02,19.70
2008,08,05,10,03,19.70
2008,08,05,10,04,19.70
2008,08,05,10,05,19.80
2008,08,05,10,06,19.80
2008,08,05,10,07,19.90
2008,08,05,10,08,19.90
2008,08,05,10,09,19.90
2008,08,05,10,10,19.90
2008,08,05,10,11,19.90
2008,08,05,10,12,19.90
2008,08,05,10,13,19.90
2008,08,05,10,14,19.90
2008,08,05,10,15,19.90
2008,08,05,10,16,19.90
2008,08,05,10,17,19.90
2008,08,05,10,18,19.90
2008,08,05,10,19,19.90
2008,08,05,10,20,19.90
2008,08,05,10,21,20.00
2008,08,05,10,22,20.10
2008,08,05,10,23,20.10
2008,08,05,10,24,20.10
2008,08,05,10,25,20.20
2008,08,05,10,26,20.20
2008,08,05,10,27,20.20
2008,08,05,10,28,20.20
2008,08,05,10,29,20.10
2008,08,05,10,30,20.00
2008,08,05,10,31,19.80
2008,08,05,10,32,19.70
2008,08,05,10,33,19.60
2008,08,05,10,34,19.60
2008,08,05,10,35,19.50
2008,08,05,10,36,19.40
2008,08,05,10,37,19.40
2008,08,05,10,38,19.40
2008,08,05,10,39,19.40
2008,08,05,10,40,19.40
2008,08,05,10,41,19.30
2008,08,05,10,42,19.30
2008,08,05,10,43,19.20
2008,08,05,10,44,19.20
2008,08,05,10,45,19.10
2008,08,05,10,46,19.20
2008,08,05,10,47,19.30
2008,08,05,10,48,19.30
2008,08,05,10,49,19.40
2008,08,05,10,50,19.40
2008,08,05,10,51,19.40
2008,08,05,10,52,19.50
2008,08,05,10,53,19.50
2008,08,05,10,54,19.50
2008,08,05,10,55,19.50
2008,08,05,10,56,19.60
2008,08,05,10,57,19.60
2008,08,05,10,58,19.60
2008,08,05,10,59,19.60
2008,08,05,11,00,19.60
2008,08,05,11,01,19.60
2008,08,05,11,02,19.60
2008,08,05,11,03,19.70
2008,08,05,11,04,19.70
2008,08,05,11,05,19.80
2008,08,05,11,06,19.90
2008,08,05,11,07,20.00
2008,08,05,11,08,20.10
2008,08,05,11,09,20.10
2008,08,05,11,10,20.10
2008,08,05,11,11,20.10
2008,08,05,11,12,20.10
2008,08,05,11,13,20.00
2008,08,05,11,14,19.90
2008,08,05,11,15,19.90
2008,08,05,11,16,20.00
2008,08,05,11,17,20.20
2008,08,05,11,18,20.20
2008,08,05,11,19,20.20
2008,08,05,11,20,20.20
2008,08,05,11,21,20.20
2008,08,05,11,22,20.30
2008,08,05,11,23,20.30
2008,08,05,11,24,20.40
2008,08,05,11,25,20.40
2008,08,05,11,26,20.40
2008,08,05,11,27,20.50
2008,08,05,11,28,20.50
2008,08,05,11,29,20.50
2008,08,05,11,30,20.60
2008,08,05,11,31,20.60
2008,08,05,11,32,20.60
2008,08,05,11,33,20.70
2008,08,05,11,34,20.70
2008,08,05,11,35,20.70
2008,08,05,11,36,20.70
2008,08,05,11,37,20.60
2008,08,05,11,38,20.60
2008,08,05,11,39,20.60
2008,08,05,11,40,20.70
2008,08,05,11,41,20.70
2008,08,05,11,42,20.80
2008,08,05,11,43,20.90
2008,08,05,11,44,21.00
2008,08,05,11,45,21.10
2008,08,05,11,46,21.20
2008,08,05,11,47,21.20
2008,08,05,11,48,21.30
2008,08,05,11,49,21.20
2008,08,05,11,50,21.20
2008,08,05,11,51,21.30
2008,08,05,11,52,21.30
2008,08,05,11,53,21.30
2008,08,05,11,54,21.30
2008,08,05,11,55,21.30
2008,08,05,11,56,21.30
2008,08,05,11,57,21.30
2008,08,05,11,58,21.30
2008,08,05,11,59,21.30
2008,08,05,12,00,21.40
2008,08,05,12,01,21.40
2008,08,05,12,02,21.40
2008,08,05,12,03,21.40
2008,08,05,12,04,21.30
2008,08,05,12,05,21.30
2008,08,05,12,06,21.30
2008,08,05,12,07,21.30
2008,08,05,12,08,21.30
2008,08,05,12,09,21.30
2008,08,05,12,10,21.30
2008,08,05,12,11,21.30
2008,08,05,12,12,21.40
2008,08,05,12,13,21.50
2008,08,05,12,14,21.60
2008,08,05,12,15,21.60
2008,08,05,12,16,21.70
2008,08,05,12,17,21.90
2008,08,05,12,18,22.00
2008,08,05,12,19,22.10
2008,08,05,12,20,22.10
2008,08,05,12,21,22.20
2008,08,05,12,22,22.20
2008,08,05,12,23,22.20
2008,08,05,12,24,22.30
2008,08,05,12,25,22.30
2008,08,05,12,26,22.40
2008,08,05,12,27,22.40
2008,08,05,12,28,22.50
2008,08,05,12,29,22.60
2008,08,05,12,30,22.60
2008,08,05,12,31,22.70
2008,08,05,12,32,22.80
2008,08,05,12,33,22.90
2008,08,05,12,34,22.90
2008,08,05,12,35,22.80
2008,08,05,12,36,22.80
2008,08,05,12,37,22.80
2008,08,05,12,38,22.80
2008,08,05,12,39,22.80
2008,08,05,12,40,22.90
2008,08,05,12,41,22.90
2008,08,05,12,42,22.90
2008,08,05,12,43,23.00
2008,08,05,12,44,23.10
2008,08,05,12,45,23.20
2008,08,05,12,46,23.30
2008,08,05,12,47,23.30
2008,08,05,12,48,23.30
2008,08,05,12,49,23.40
2008,08,05,12,50,23.50
2008,08,05,12,51,23.60
2008,08,05,12,52,23.60
2008,08,05,12,53,23.60
2008,08,05,12,54,23.70
2008,08,05,12,55,23.70
2008,08,05,12,56,23.70
2008,08,05,12,57,23.70
2008,08,05,12,58,23.80
2008,08,05,12,59,23.80
2008,08,05,13,00,23.80
2008,08,05,13,01,23.80
2008,08,05,13,02,23.90
2008,08,05,13,03,23.90
2008,08,05,13,04,24.10
2008,08,05,13,05,24.10
2008,08,05,13,06,24.10
2008,08,05,13,07,24.10
2008,08,05,13,08,24.30
2008,08,05,13,09,24.30
2008,08,05,13,10,24.40
2008,08,05,13,11,24.30
2008,08,05,13,12,24.30
2008,08,05,13,13,24.30
2008,08,05,13,14,24.20
2008,08,05,13,15,24.30
2008,08,05,13,16,24.30
2008,08,05,13,17,24.30
2008,08,05,13,18,24.40
2008,08,05,13,19,24.40
2008,08,05,13,20,24.50
2008,08,05,13,21,24.50
2008,08,05,13,22,24.40
2008,08,05,13,23,24.40
2008,08,05,13,24,24.50
2008,08,05,13,25,24.50
2008,08,05,13,26,24.50
2008,08,05,13,27,24.50
2008,08,05,13,28,24.50
2008,08,05,13,29,24.60
2008,08,05,13,30,24.50
2008,08,05,13,31,24.50
2008,08,05,13,32,24.50
2008,08,05,13,33,24.40
2008,08,05,13,34,24.50
2008,08,05,13,35,24.50
2008,08,05,13,36,24.50
2008,08,05,13,37,24.50
2008,08,05,13,38,24.50
2008,08,05,13,39,24.60
2008,08,05,13,40,24.80
2008,08,05,13,41,24.80
2008,08,05,13,42,24.90
2008,08,05,13,43,24.90
2008,08,05,13,44,24.80
2008,08,05,13,45,24.80
2008,08,05,13,46,24.80
2008,08,05,13,47,24.70
2008,08,05,13,48,24.70
2008,08,05,13,49,24.70
2008,08,05,13,50,24.80
2008,08,05,13,51,24.80
2008,08,05,13,52,24.80
2008,08,05,13,53,24.90
2008,08,05,13,54,25.00
2008,08,05,13,55,25.10
2008,08,05,13,56,25.10
2008,08,05,13,57,25.20
2008,08,05,13,58,25.30
2008,08,05,13,59,25.30
2008,08,05,14,00,25.40
2008,08,05,14,01,25.30
2008,08,05,14,02,25.30
2008,08,05,14,03,25.20
2008,08,05,14,04,25.30
2008,08,05,14,05,25.30
2008,08,05,14,06,25.30
2008,08,05,14,07,25.30
2008,08,05,14,08,25.30
2008,08,05,14,09,25.40
2008,08,05,14,10,25.40
2008,08,05,14,11,25.50
2008,08,05,14,12,25.60
2008,08,05,14,13,25.60
2008,08,05,14,14,25.70
2008,08,05,14,15,25.70
2008,08,05,14,16,25.70
2008,08,05,14,17,25.70
2008,08,05,14,18,25.70
2008,08,05,14,19,25.70
2008,08,05,14,20,25.70
2008,08,05,14,21,25.70
2008,08,05,14,22,25.70
2008,08,05,14,23,25.70
2008,08,05,14,24,25.60
2008,08,05,14,25,25.60
2008,08,05,14,26,25.70
2008,08,05,14,27,25.80
2008,08,05,14,28,25.90
2008,08,05,14,29,25.90
2008,08,05,14,30,25.90
2008,08,05,14,31,25.90
2008,08,05,14,32,25.90
2008,08,05,14,33,25.90
2008,08,05,14,34,25.90
2008,08,05,14,35,26.10
2008,08,05,14,36,26.20
2008,08,05,14,37,26.20
2008,08,05,14,38,26.20
2008,08,05,14,39,26.20
2008,08,05,14,40,26.10
2008,08,05,14,41,26.10
2008,08,05,14,42,26.20
2008,08,05,14,43,26.20
2008,08,05,14,44,26.20
2008,08,05,14,45,26.20
2008,08,05,14,46,26.20
2008,08,05,14,47,26.30
2008,08,05,14,48,26.40
2008,08,05,14,49,26.40
2008,08,05,14,50,26.50
2008,08,05,14,51,26.60
2008,08,05,14,52,26.60
2008,08,05,14,53,26.60
2008,08,05,14,54,26.50
2008,08,05,14,55,26.40
2008,08,05,14,56,26.40
2008,08,05,14,57,26.40
2008,08,05,14,58,26.50
2008,08,05,14,59,26.60
2008,08,05,15,00,26.60
2008,08,05,15,01,26.60
2008,08,05,15,02,26.50
2008,08,05,15,03,26.40
2008,08,05,15,04,26.50
2008,08,05,15,05,26.60
2008,08,05,15,06,26.60
2008,08,05,15,07,26.70
2008,08,05,15,08,26.70
2008,08,05,15,09,26.60
2008,08,05,15,10,26.60
2008,08,05,15,11,26.60
2008,08,05,15,12,26.60
2008,08,05,15,13,26.60
2008,08,05,15,14,26.60
2008,08,05,15,15,26.70
2008,08,05,15,16,26.80
2008,08,05,15,17,26.90
2008,08,05,15,18,26.90
2008,08,05,15,19,26.90
2008,08,05,15,20,26.90
2008,08,05,15,21,26.90
2008,08,05,15,22,26.90
2008,08,05,15,23,26.90
2008,08,05,15,24,27.00
2008,08,05,15,25,27.10
2008,08,05,15,26,27.10
2008,08,05,15,27,27.20
2008,08,05,15,28,27.20
2008,08,05,15,29,27.20
2008,08,05,15,30,27.20
2008,08,05,15,31,27.20
2008,08,05,15,32,27.10
2008,08,05,15,33,27.10
2008,08,05,15,34,27.10
2008,08,05,15,35,27.10
2008,08,05,15,36,27.10
2008,08,05,15,37,27.10
2008,08,05,15,38,27.10
2008,08,05,15,39,27.10
2008,08,05,15,40,27.10
2008,08,05,15,41,27.10
2008,08,05,15,42,27.20
2008,08,05,15,43,27.30
2008,08,05,15,44,27.30
2008,08,05,15,45,27.40
2008,08,05,15,46,27.50
2008,08,05,15,47,27.60
2008,08,05,15,48,27.60
2008,08,05,15,49,27.70
2008,08,05,15,50,27.70
2008,08,05,15,51,27.70
2008,08,05,15,52,27.70
2008,08,05,15,53,27.70
2008,08,05,15,54,27.70
2008,08,05,15,55,27.60
2008,08,05,15,56,27.60
2008,08,05,15,57,27.60
2008,08,05,15,58,27.50
2008,08,05,15,59,27.40
2008,08,05,16,00,27.30
2008,08,05,16,01,27.30
2008,08,05,16,02,27.30
2008,08,05,16,03,27.50
2008,08,05,16,04,27.60
2008,08,05,16,05,27.60
2008,08,05,16,06,27.50
2008,08,05,16,07,27.40
2008,08,05,16,08,27.30
2008,08,05,16,09,27.30
2008,08,05,16,10,27.30
2008,08,05,16,11,27.30
2008,08,05,16,12,27.30
2008,08,05,16,13,27.30
2008,08,05,16,14,27.30
2008,08,05,16,15,27.30
2008,08,05,16,16,27.30
2008,08,05,16,17,27.30
2008,08,05,16,18,27.30
2008,08,05,16,19,27.30
2008,08,05,16,20,27.20
2008,08,05,16,21,27.20
2008,08,05,16,22,27.20
2008,08,05,16,23,27.20
2008,08,05,16,24,27.20
2008,08,05,16,25,27.20
2008,08,05,16,26,27.10
2008,08,05,16,27,27.00
2008,08,05,16,28,26.90
2008,08,05,16,29,26.90
2008,08,05,16,30,26.90
2008,08,05,16,31,26.80
2008,08,05,16,32,26.90
2008,08,05,16,33,26.90
2008,08,05,16,34,27.10
2008,08,05,16,35,27.20
2008,08,05,16,36,27.30
2008,08,05,16,37,27.30
2008,08,05,16,38,27.30
2008,08,05,16,39,27.30
2008,08,05,16,40,27.40
2008,08,05,16,41,27.40
2008,08,05,16,42,27.60
2008,08,05,16,43,27.60
2008,08,05,16,44,27.70
2008,08,05,16,45,27.60
2008,08,05,16,46,27.60
2008,08,05,16,47,27.60
2008,08,05,16,48,27.50
2008,08,05,16,49,27.40
2008,08,05,16,50,27.60
2008,08,05,16,51,27.60
2008,08,05,16,52,27.60
2008,08,05,16,53,27.60
2008,08,05,16,54,27.60
2008,08,05,16,55,27.70
2008,08,05,16,56,27.70
2008,08,05,16,57,27.70
2008,08,05,16,58,27.70
2008,08,05,16,59,27.70
2008,08,05,17,00,27.70
2008,08,05,17,01,27.70
2008,08,05,17,02,27.70
2008,08,05,17,03,27.80
2008,08,05,17,04,27.80
2008,08,05,17,05,27.80
2008,08,05,17,06,27.80
2008,08,05,17,07,27.80
2008,08,05,17,08,27.80
2008,08,05,17,09,27.90
2008,08,05,17,10,27.90
2008,08,05,17,11,27.90
2008,08,05,17,12,27.90
2008,08,05,17,13,28.00
2008,08,05,17,14,28.20
2008,08,05,17,15,28.30
2008,08,05,17,16,28.40
2008,08,05,17,17,28.40
2008,08,05,17,18,28.40
2008,08,05,17,19,28.40